Temp
2 3 3 3 3 2 4 6 7 7 7 7 8 6 7 8 9 10 11 11 11 11 11 10 10 9 9 9 9 9 9 10 10 9 7 7 7 7 7 7 7 7 8 8 8 8 7 7 7
3 2 3 2 2 2 4 5 7 7 7 7 7 6 6 7 8 9 10 11 11 10 10 10 9 9 9 9 9 9 9 9 9 9 8 7 7 7 7 7 7 8 8 7 7 7 7 7 7
2 2 2 1 1 1 3 6 6 7 7 6 7 5 6 6 7 8 10 11 11 10 9 9 8 9 9 9 9 9 9 9 9 9 9 8 7 8 8 8 8 7 7 7 7 7 7 6 6
1 1 1 1 0 2 3 5 6 6 7 6 7 6 5 5 7 7 9 10 10 10 9 9 8 9 9 9 9 8 8 8 8 9 9 8 8 8 8 7 7 7 7 6 6 6 6 6 6
1 0 0 -0 1 2 4 4 4 6 6 6 6 5 5 5 5 6 8 9 9 9 8 8 7 8 8 8 8 8 8 8 8 8 8 8 8 7 7 7 7 7 6 6 6 6 6 5 5
1 0 -0 -0 -0 3 4 4 4 5 6 6 6 6 6 5 5 5 7 7 8 8 7 8 7 8 8 8 8 8 8 7 8 8 8 8 8 7 7 7 7 6 6 6 6 5 5 5 5
1 0 -0 0 1 3 3 3 5 5 6 6 6 5 5 5 4 5 6 6 6 6 6 7 7 8 8 8 8 8 7 7 7 7 7 7 7 7 7 6 6 6 6 6 5 5 5 5 5
0 -1 -1 -0 0 3 3 3 5 5 5 5 5 5 5 5 5 5 5 4 5 6 6 7 7 8 8 8 7 7 7 7 7 7 7 7 7 7 6 6 6 6 6 5 5 5 5 5 5
-2 -2 -2 -1 0 3 3 2 4 5 5 5 6 6 6 6 5 4 4 4 5 5 6 6 8 8 8 7 7 7 7 7 7 7 7 7 6 6 6 6 6 6 5 5 5 5 5 5 5
-3 -3 -0 2 2 3 1 2 3 3 4 5 6 7 6 5 5 5 4 4 4 5 5 6 6 7 7 7 7 7 7 7 7 7 7 7 6 6 6 6 6 6 6 6 5 5 5 5 5
-4 -2 0 1 1 1 0 2 2 2 2 5 6 6 6 6 5 5 5 4 3 5 5 5 6 7 7 7 7 7 7 7 7 7 7 7 6 6 6 6 6 6 6 6 6 6 5 5 5
-4 -2 -2 -1 -1 -1 -0 2 2 2 2 5 5 6 6 6 5 5 5 3 3 4 5 5 4 6 6 6 7 7 7 7 7 7 7 6 6 6 6 6 6 6 6 6 6 6 6 5 5
-5 -3 -3 -2 -2 -1 0 1 1 2 3 4 5 6 6 6 6 6 5 5 5 2 3 4 4 4 6 6 6 6 7 7 7 6 6 6 6 6 6 6 6 6 6 6 6 6 6 6 6
-5 -4 -3 -3 -2 -1 -1 1 -0 2 2 4 5 6 6 6 6 6 6 5 4 3 2 3 3 4 5 6 6 6 6 6 6 6 6 6 6 6 6 6 6 6 6 6 6 6 6 6 6
-5 -6 -4 -4 -2 -1 -1 -0 -0 0 2 4 4 5 5 6 6 7 6 5 5 4 3 4 4 4 3 4 5 5 6 6 6 6 6 6 6 6 6 7 6 6 6 6 6 6 6 6 6
-6 -6 -5 -3 -2 -1 -1 0 -1 0 3 3 4 4 4 5 6 5 5 4 5 4 5 4 5 4 4 3 3 4 5 5 6 6 6 6 6 6 7 7 6 6 6 6 6 6 6 6 6
-6 -5 -4 -3 -2 -2 -1 -1 0 0 2 3 3 4 3 3 4 4 4 4 5 5 4 4 4 4 4 4 4 4 4 5 5 6 6 6 7 7 7 7 7 7 7 6 6 6 6 6 6
-5 -5 -4 -3 -2 -2 -1 -1 0 2 2 3 3 3 2 3 3 3 4 4 4 4 4 4 4 4 4 3 4 3 4 4 4 5 5 6 6 7 7 7 7 7 7 6 6 6 6 6 6
-4 -4 -3 -3 -1 -1 -1 -1 -1 -0 1 2 3 3 3 3 2 3 3 4 4 4 4 4 4 2 3 4 4 3 3 4 5 4 4 6 6 6 6 6 6 6 6 5 6 6 6 5 5
-4 -4 -3 -3 -1 -1 -1 -1 -1 -1 1 1 2 2 2 4 4 4 4 3 4 5 4 4 4 4 3 4 4 3 3 4 4 5 5 5 5 5 5 5 5 5 5 5 5 5 5 5 5
-4 -3 -2 -2 -2 -2 -1 -1 -2 -1 1 0 1 1 3 3 4 4 4 5 4 5 5 5 5 4 4 4 4 4 4 4 4 4 4 5 5 5 4 5 4 4 4 4 4 4 4 4 4
-3 -2 -1 -2 -1 -2 -1 -2 -1 -0 1 1 0 2 2 3 4 4 4 4 5 5 5 5 5 5 4 4 4 4 3 3 3 3 4 4 4 4 4 4 4 3 3 3 3 3 3 3 3
-3 -2 -1 -1 -1 -1 -2 -2 -1 1 2 2 1 2 2 2 3 3 3 3 3 4 4 4 4 4 4 4 4 4 4 3 3 3 4 4 4 3 3 3 2 2 2 2 2 3 3 3 3
-2 -2 -1 -1 -1 -2 -3 -2 1 1 2 1 1 1 2 2 3 3 4 4 4 4 3 3 3 4 4 4 4 4 3 3 3 2 3 4 4 3 2 2 2 2 2 1 1 1 1 2 2
-3 -1 -3 -3 -3 -2 -2 -2 1 0 1 1 1 1 2 2 3 3 3 3 3 3 3 3 3 3 4 4 3 3 3 3 2 3 3 4 4 3 3 2 2 2 1 2 1 1 1 1 0
-3 -2 -1 -1 -2 -2 -2 -1 1 2 2 2 2 1 0 2 2 2 2 2 2 3 3 3 3 2 2 3 3 3 3 3 3 3 3 3 2 2 2 2 2 2 2 2 1 0 0 1 1
-2 -2 -1 -2 -2 -2 -0 1 1 2 3 2 2 2 2 2 2 2 2 2 2 3 3 3 3 2 2 2 2 3 3 3 3 3 3 3 2 2 2 2 2 1 1 0 0 0 1 1 1
-1 -1 -1 -1 -2 -2 -1 -0 0 1 2 2 2 2 2 2 2 2 2 2 2 2 2 2 2 2 2 2 2 2 3 3 3 3 3 2 2 2 2 2 1 1 1 1 0 0 1 1 1
-0 0 0 -0 -1 -2 -1 0 1 0 1 2 2 2 2 2 2 1 1 1 2 2 2 2 2 2 2 3 3 3 3 3 2 2 2 2 2 2 2 2 1 1 1 1 0 0 0 0 0
-1 -0 0 1 -1 -1 -1 -1 0 1 0 1 1 1 1 1 1 1 1 1 1 1 1 1 1 2 2 2 2 3 3 3 3 2 2 2 2 1 1 1 1 0 0 0 0 0 1 1 0
Height
3103 3108 3112 3115 3119 3114 3110 3112 3117 3121 3125 3128 3133 3137 3138 3140 3141 3143 3141 3142 3144 3146 3149 3150 3151 3152 3154 3155 3157 3158 3159 3160 3161 3162 3164 3167 3169 3171 3173 3175 3176 3178 3179 3180 3181 3181 3182 3183 3183
3100 3103 3107 3107 3108 3107 3106 3111 3114 3119 3122 3125 3127 3133 3137 3137 3137 3138 3139 3141 3143 3145 3147 3149 3150 3152 3154 3155 3157 3159 3160 3161 3162 3163 3165 3168 3170 3172 3173 3175 3177 3178 3180 3181 3182 3182 3183 3184 3184
3095 3098 3102 3100 3101 3101 3105 3109 3114 3118 3118 3120 3123 3130 3133 3132 3135 3137 3139 3140 3142 3144 3146 3148 3150 3152 3153 3155 3157 3158 3160 3161 3162 3164 3166 3169 3171 3172 3174 3176 3177 3179 3181 3182 3183 3184 3185 3186 3186
3090 3093 3096 3092 3092 3096 3102 3108 3111 3115 3116 3118 3124 3126 3129 3131 3133 3135 3137 3139 3140 3142 3145 3147 3149 3151 3153 3155 3156 3158 3160 3162 3163 3165 3167 3169 3171 3173 3175 3177 3179 3180 3182 3183 3184 3185 3186 3186 3187
3085 3087 3089 3086 3088 3093 3098 3104 3106 3109 3113 3114 3119 3120 3127 3130 3129 3131 3135 3137 3140 3141 3143 3146 3148 3150 3152 3154 3156 3158 3160 3162 3164 3166 3168 3170 3172 3174 3176 3178 3180 3182 3183 3184 3185 3186 3187 3187 3188
3079 3082 3082 3082 3085 3089 3094 3100 3103 3105 3110 3113 3115 3118 3124 3126 3125 3128 3134 3136 3138 3140 3142 3145 3148 3150 3152 3154 3156 3158 3160 3163 3165 3167 3169 3171 3173 3175 3177 3180 3181 3182 3184 3185 3186 3187 3188 3188 3188
3073 3075 3075 3079 3080 3083 3088 3096 3098 3103 3106 3108 3110 3114 3120 3124 3124 3128 3130 3135 3137 3140 3141 3144 3146 3148 3151 3153 3156 3158 3160 3162 3165 3167 3170 3172 3174 3177 3179 3181 3183 3184 3185 3187 3187 3188 3189 3189 3190
3068 3070 3070 3073 3076 3077 3084 3090 3097 3099 3103 3106 3108 3108 3111 3117 3122 3126 3127 3125 3133 3138 3141 3144 3145 3148 3151 3153 3155 3158 3160 3162 3165 3168 3170 3173 3175 3177 3179 3181 3183 3185 3186 3187 3188 3188 3189 3189 3189
3062 3065 3064 3067 3072 3075 3078 3085 3091 3094 3098 3102 3104 3107 3109 3112 3117 3121 3127 3123 3127 3135 3139 3143 3145 3148 3150 3153 3155 3158 3160 3163 3166 3168 3171 3173 3176 3177 3179 3181 3183 3184 3185 3186 3187 3188 3188 3189 3188
3055 3056 3054 3062 3067 3069 3075 3080 3087 3091 3094 3096 3100 3104 3107 3110 3113 3114 3121 3120 3129 3132 3137 3140 3144 3147 3151 3153 3155 3158 3161 3163 3166 3169 3171 3173 3176 3177 3179 3181 3183 3184 3185 3186 3187 3187 3187 3187 3187
3048 3047 3052 3055 3062 3066 3072 3075 3080 3082 3089 3092 3096 3100 3104 3107 3111 3112 3117 3119 3124 3132 3133 3138 3142 3145 3149 3153 3156 3158 3160 3164 3166 3169 3171 3173 3175 3178 3179 3180 3182 3184 3185 3185 3186 3186 3186 3186 3186
3042 3044 3047 3050 3056 3061 3066 3072 3075 3077 3081 3089 3094 3099 3101 3104 3108 3110 3115 3117 3122 3124 3128 3131 3138 3143 3146 3150 3154 3157 3160 3162 3165 3168 3170 3172 3175 3177 3179 3180 3181 3183 3184 3184 3185 3185 3184 3184 3184
3035 3038 3042 3046 3052 3055 3063 3065 3069 3072 3078 3084 3088 3092 3097 3102 3103 3106 3107 3106 3114 3118 3120 3127 3130 3136 3143 3147 3151 3155 3159 3162 3164 3166 3169 3171 3173 3175 3177 3179 3180 3181 3182 3182 3183 3183 3183 3183 3182
3031 3033 3035 3040 3047 3052 3056 3060 3063 3067 3074 3080 3081 3087 3090 3095 3100 3104 3105 3107 3112 3120 3122 3128 3128 3132 3137 3145 3149 3152 3156 3160 3162 3165 3168 3170 3171 3173 3175 3176 3177 3178 3179 3180 3181 3181 3181 3181 3181
3027 3029 3031 3035 3042 3045 3053 3054 3055 3061 3069 3074 3077 3083 3087 3092 3096 3099 3103 3108 3112 3116 3117 3121 3129 3131 3135 3138 3145 3149 3152 3156 3160 3163 3165 3167 3169 3170 3171 3173 3174 3174 3176 3177 3178 3178 3178 3178 3178
3021 3025 3025 3029 3037 3042 3048 3046 3057 3054 3064 3067 3072 3077 3082 3086 3091 3097 3101 3104 3109 3111 3116 3118 3124 3129 3136 3136 3139 3143 3147 3151 3155 3159 3162 3164 3166 3167 3168 3169 3170 3171 3172 3173 3174 3175 3175 3175 3175
3014 3016 3020 3026 3032 3038 3040 3045 3048 3053 3057 3063 3068 3072 3077 3080 3087 3092 3096 3099 3107 3110 3111 3117 3124 3128 3132 3134 3137 3139 3142 3146 3150 3154 3158 3160 3162 3163 3164 3165 3166 3167 3168 3169 3170 3172 3172 3172 3172
3010 3013 3016 3021 3028 3035 3039 3033 3042 3048 3054 3059 3066 3069 3072 3078 3078 3086 3091 3095 3098 3108 3110 3113 3118 3125 3126 3127 3131 3133 3139 3141 3144 3149 3151 3153 3156 3158 3158 3159 3161 3162 3163 3164 3166 3167 3167 3168 3167
3005 3012 3013 3020 3026 3033 3037 3041 3045 3049 3053 3056 3061 3065 3071 3075 3080 3085 3089 3095 3097 3101 3106 3111 3115 3118 3120 3123 3127 3128 3130 3137 3139 3142 3144 3148 3150 3151 3152 3153 3154 3155 3157 3159 3160 3162 3163 3163 3163
2998 3009 3017 3020 3026 3032 3035 3039 3041 3045 3048 3054 3059 3062 3070 3075 3081 3085 3088 3091 3095 3100 3103 3108 3112 3113 3114 3116 3116 3124 3128 3133 3134 3138 3139 3141 3142 3143 3145 3146 3147 3149 3151 3153 3154 3156 3157 3158 3157
3004 3010 3015 3020 3025 3032 3033 3038 3039 3042 3046 3052 3057 3061 3067 3073 3078 3082 3087 3089 3094 3097 3099 3103 3107 3108 3112 3115 3117 3118 3124 3129 3130 3130 3130 3134 3136 3137 3139 3141 3142 3143 3145 3147 3149 3150 3150 3151 3152
3009 3015 3018 3021 3026 3033 3037 3041 3039 3041 3043 3047 3054 3058 3064 3071 3076 3080 3083 3088 3093 3094 3096 3100 3104 3107 3108 3111 3113 3106 3113 3116 3119 3121 3126 3128 3129 3131 3132 3135 3136 3138 3140 3142 3142 3143 3144 3145 3145
3012 3016 3020 3024 3030 3033 3040 3045 3039 3039 3040 3043 3049 3054 3062 3067 3072 3076 3081 3086 3089 3091 3095 3099 3101 3104 3106 3109 3111 3110 3112 3114 3116 3116 3121 3124 3125 3125 3125 3125 3127 3130 3130 3130 3134 3138 3139 3138 3138
3015 3019 3023 3026 3031 3038 3041 3042 3037 3036 3038 3041 3044 3051 3059 3064 3069 3074 3078 3081 3086 3090 3093 3096 3099 3101 3103 3104 3106 3108 3110 3111 3112 3113 3115 3120 3120 3121 3120 3121 3120 3118 3119 3125 3128 3132 3132 3133 3133
3019 3022 3028 3033 3034 3036 3036 3039 3038 3038 3039 3038 3045 3050 3058 3063 3068 3071 3075 3078 3082 3084 3087 3091 3095 3097 3098 3100 3102 3103 3105 3107 3108 3110 3109 3110 3113 3113 3114 3114 3118 3117 3118 3119 3121 3124 3125 3125 3126
3022 3023 3025 3030 3036 3039 3040 3039 3039 3038 3036 3039 3042 3047 3055 3062 3067 3071 3073 3075 3079 3080 3083 3086 3087 3090 3091 3094 3096 3098 3099 3101 3103 3104 3104 3103 3104 3104 3107 3108 3110 3111 3112 3112 3114 3118 3120 3121 3120
3022 3025 3025 3025 3035 3039 3040 3040 3039 3039 3039 3042 3047 3051 3055 3060 3064 3067 3071 3073 3074 3076 3078 3080 3082 3085 3087 3090 3091 3092 3094 3095 3097 3097 3095 3096 3097 3099 3100 3101 3104 3106 3106 3107 3110 3112 3114 3114 3114
3026 3029 3032 3033 3039 3041 3042 3041 3043 3043 3042 3044 3045 3050 3053 3058 3063 3066 3069 3072 3074 3075 3075 3076 3079 3080 3081 3082 3084 3086 3087 3088 3089 3088 3088 3090 3091 3094 3095 3096 3099 3101 3102 3103 3104 3104 3107 3106 3107
3029 3029 3030 3031 3033 3036 3044 3044 3043 3043 3046 3047 3049 3052 3054 3059 3063 3065 3068 3069 3070 3071 3073 3074 3075 3075 3076 3077 3077 3078 3078 3079 3080 3081 3082 3084 3087 3089 3089 3091 3094 3095 3095 3097 3097 3097 3098 3099 3098
3029 3031 3031 3031 3037 3035 3039 3045 3042 3043 3046 3049 3051 3052 3054 3057 3059 3062 3064 3065 3067 3069 3070 3071 3070 3070 3071 3071 3071 3071 3071 3072 3073 3074 3076 3077 3080 3081 3083 3085 3087 3088 3089 3090 3090 3090 3089 3090 3089
Wind_Speed
34 30 29 30 26 18 26 32 22 21 32 42 42 14 8 11 12 8 7 13 18 15 13 12 11 10 9 9 8 8 11 11 12 14 17 19 16 15 14 12 11 10 10 12 13 13 14 14 14
33 31 31 30 26 21 31 37 36 17 21 33 44 32 13 15 18 15 8 15 19 15 13 12 12 11 10 10 10 11 12 13 14 16 19 20 17 14 13 12 13 14 15 15 14 14 13 13 14
33 31 32 31 28 30 32 38 46 27 20 29 36 46 12 11 16 17 14 20 21 18 15 13 13 13 12 12 14 14 14 14 15 16 19 21 17 15 15 16 16 16 16 15 14 13 13 14 14
34 31 31 33 26 38 39 41 40 44 21 17 30 40 33 17 12 17 16 22 23 20 17 16 15 15 15 15 16 16 15 15 15 16 17 20 18 17 17 18 18 17 16 15 15 15 15 15 14
31 34 30 29 34 40 44 39 22 39 46 24 20 32 39 25 14 17 19 24 22 21 20 18 17 17 17 18 18 19 18 17 17 17 17 18 18 19 19 19 18 16 15 15 16 15 14 14 14
29 36 26 34 35 37 43 44 17 21 28 35 29 33 35 36 32 15 18 21 22 21 20 20 18 19 19 20 20 21 21 20 19 19 18 18 18 18 18 16 16 16 16 15 15 14 14 13 12
31 36 39 33 45 38 42 43 30 21 19 25 29 27 32 37 31 29 24 21 21 21 20 21 21 22 21 21 21 22 23 22 20 19 19 18 18 17 17 16 16 15 15 14 14 13 12 10 9
31 31 36 40 37 51 38 39 41 31 21 21 31 31 35 32 37 32 14 24 22 22 21 22 23 24 24 23 23 22 23 23 22 21 20 20 20 20 19 18 16 15 13 12 10 9 7 6 6
27 31 33 40 44 47 40 34 39 40 33 27 26 30 32 36 35 31 31 29 26 24 24 23 24 26 26 25 25 24 24 25 25 25 24 22 21 19 18 16 14 11 9 7 5 3 3 4 5
29 35 45 42 43 50 39 31 35 44 40 34 30 33 31 26 34 32 35 23 25 26 27 25 25 27 28 27 28 28 26 27 26 25 23 21 19 17 15 12 9 7 5 3 1 2 4 4 5
33 41 43 42 41 39 31 24 31 40 41 35 34 36 40 34 32 38 34 30 27 26 27 27 24 28 29 29 29 29 28 25 24 22 20 17 15 12 9 8 6 4 3 3 4 5 6 7 8
33 38 40 43 40 39 35 26 32 32 41 34 29 37 31 31 37 38 34 35 25 23 34 33 22 26 27 30 30 29 28 26 23 20 18 15 14 12 9 7 6 6 5 6 7 7 8 8 9
34 38 41 42 35 29 30 33 25 27 36 32 27 30 35 33 32 33 23 21 25 17 38 42 31 28 27 29 30 29 28 25 24 22 19 16 14 13 11 10 9 9 9 8 8 8 9 9 10
31 37 40 34 32 32 26 44 30 34 33 32 31 31 31 29 26 22 19 17 13 15 35 43 30 28 30 27 29 28 28 27 25 23 20 18 16 15 14 13 13 12 12 11 10 9 9 10 10
31 29 37 37 36 33 31 37 45 31 36 29 32 28 31 32 31 25 27 23 16 8 2 8 8 36 27 30 29 27 28 28 26 23 22 21 19 18 17 17 16 16 15 14 12 11 10 11 12
23 30 29 35 36 30 33 45 45 32 35 30 31 34 32 37 31 26 25 27 15 13 17 9 2 5 36 33 33 32 28 28 28 26 24 23 22 22 21 21 19 19 19 17 15 14 12 13 13
26 24 37 24 40 29 28 30 29 37 27 34 29 34 34 32 32 28 27 24 21 18 20 14 13 8 19 37 39 36 28 26 25 26 26 25 24 24 25 24 23 23 22 21 19 17 15 16 16
22 25 23 29 40 36 21 24 14 38 28 33 33 27 30 31 26 26 25 28 20 21 18 20 27 19 21 16 27 31 34 34 27 26 25 25 27 28 29 28 26 26 25 24 22 20 19 18 18
18 33 13 26 25 31 36 27 11 24 32 30 36 30 25 27 25 26 25 24 25 24 26 24 26 30 23 23 23 24 28 36 32 29 28 27 25 29 30 29 28 28 26 25 25 23 21 19 19
18 33 17 19 20 19 23 24 31 26 25 31 29 28 26 24 28 29 28 25 29 27 26 26 26 25 28 28 28 16 10 17 26 31 29 29 28 29 27 27 27 26 25 26 26 23 21 19 18
24 33 18 20 21 16 11 20 22 26 27 30 31 31 32 27 24 26 28 28 27 29 27 26 27 27 23 19 25 30 25 26 27 27 24 27 30 29 28 28 25 25 26 27 24 22 20 18 15
22 19 16 19 21 4 10 2 11 17 19 26 32 34 31 29 27 24 21 21 19 17 18 20 25 28 27 25 30 30 29 23 24 22 24 27 26 27 25 25 26 25 26 25 24 24 21 18 14
11 15 12 15 17 6 4 6 2 4 10 24 28 33 30 30 28 24 22 19 18 16 17 17 18 20 23 23 25 25 24 27 29 23 25 28 29 30 28 25 22 25 25 25 24 27 25 22 15
13 18 18 14 12 4 3 11 3 12 10 15 10 36 32 28 26 25 25 24 24 23 23 21 18 20 20 20 20 22 25 26 26 26 24 25 29 29 22 30 26 29 24 26 23 34 38 35 32
17 18 4 3 3 2 7 3 3 4 8 12 24 13 33 29 27 23 21 24 28 28 28 28 27 27 29 28 25 24 25 26 25 29 29 30 40 28 26 23 30 31 29 23 16 17 21 27 25
26 6 5 4 3 2 1 4 5 4 2 14 8 23 28 24 22 19 14 14 17 20 20 21 24 30 30 29 29 27 25 26 29 30 29 30 31 27 28 26 28 31 34 35 23 21 21 22 24
12 7 9 10 9 4 2 3 3 7 11 12 15 24 21 20 20 17 15 17 17 17 18 20 20 26 29 29 29 27 27 26 27 28 28 27 27 27 28 26 24 26 24 17 22 19 22 24 26
11 11 6 5 4 3 3 4 5 6 9 9 13 17 20 19 16 14 13 13 14 15 17 18 20 21 23 26 27 27 28 29 30 29 26 25 23 26 27 24 21 23 25 22 23 25 29 29 30
12 4 5 6 3 3 3 1 4 9 7 7 11 13 15 14 12 12 13 13 13 15 17 20 21 23 25 28 29 29 29 28 28 28 29 27 27 25 23 25 27 27 28 31 33 33 36 36 35
10 4 3 2 3 5 4 2 8 13 12 8 7 8 8 9 8 9 10 12 13 12 13 14 15 17 20 21 23 25 26 26 27 29 30 30 30 31 30 31 32 31 30 36 37 37 37 36 38
Wind_Direction
225 224 221 223 219 220 224 212 215 222 216 218 215 258 266 246 209 201 209 213 189 190 201 190 185 175 173 166 164 157 149 144 135 135 129 132 140 154 150 157 155 144 133 123 117 112 104 99 95
221 222 221 224 219 217 225 213 216 213 221 223 217 224 242 248 226 230 228 199 185 187 195 189 179 173 173 164 159 154 147 139 134 135 137 136 140 143 158 150 138 129 123 119 114 108 103 98 95
219 219 220 221 225 224 224 220 219 217 216 216 222 224 222 248 242 232 231 199 191 185 189 188 177 174 171 165 159 155 148 142 136 137 141 142 146 148 137 130 128 125 121 117 111 104 99 96 94
222 219 222 224 220 222 220 225 230 223 221 232 228 227 226 257 233 233 219 198 194 183 184 185 179 174 170 164 161 154 149 144 139 139 141 147 149 139 133 130 128 126 123 117 113 111 107 102 96
225 222 225 229 235 230 222 221 239 228 228 227 218 228 225 239 237 195 205 202 194 182 183 182 177 173 169 163 159 152 146 141 139 138 138 139 138 136 133 132 131 128 123 120 117 113 107 100 93
221 221 227 226 233 234 224 218 214 221 233 230 231 243 236 235 241 243 208 200 188 185 182 180 176 173 169 164 159 153 146 142 140 137 136 136 135 134 133 134 131 126 123 119 114 109 103 94 85
223 220 225 233 234 237 228 221 208 203 214 214 219 222 226 234 244 252 201 193 186 184 188 182 177 172 169 164 159 156 149 145 143 140 138 136 134 133 130 127 123 120 115 110 103 94 87 79 69
230 221 228 227 233 237 230 226 213 213 213 209 212 213 227 227 241 239 228 179 181 185 190 188 176 171 168 164 160 158 151 147 144 141 137 135 132 129 125 121 117 113 105 95 84 76 64 53 39
224 221 228 226 231 234 239 231 219 220 227 220 216 224 231 235 232 234 225 183 182 189 188 190 180 170 167 163 158 154 148 144 141 138 135 132 129 126 124 122 119 115 110 105 97 73 22 359 350
217 221 228 233 233 238 243 236 225 224 234 233 228 221 229 229 227 230 238 181 183 189 189 188 186 173 169 164 158 153 150 146 143 142 140 138 136 133 130 126 125 128 130 139 204 287 294 301 307
225 230 232 230 228 238 235 232 236 226 227 230 226 220 227 240 231 228 241 237 190 195 187 190 190 182 177 172 167 161 159 156 153 153 151 149 148 145 143 148 161 178 211 242 262 274 285 290 295
235 236 234 232 226 234 225 225 222 238 212 230 229 226 222 222 228 226 230 244 251 220 191 187 192 195 190 183 180 175 172 170 168 167 167 167 173 180 186 199 218 236 252 264 267 272 276 284 292
236 238 233 234 225 228 237 222 230 228 212 226 215 220 222 229 222 232 261 281 279 248 202 191 186 190 203 193 191 189 187 185 184 184 186 189 194 202 212 224 236 248 254 262 271 278 286 293 298
239 239 234 234 222 219 227 224 236 214 219 220 206 216 214 213 219 207 225 211 224 259 192 194 202 199 196 203 200 199 199 201 200 197 200 206 214 224 231 238 243 248 252 258 266 273 283 292 298
243 239 237 225 215 224 218 225 235 223 222 215 205 209 206 211 205 221 223 208 208 264 272 251 317 201 207 204 203 208 208 209 210 212 214 220 229 235 240 245 246 248 251 253 256 264 277 289 296
243 236 232 223 207 221 214 222 228 220 212 210 210 207 202 208 215 208 211 208 191 210 228 175 347 189 214 225 211 207 211 214 216 220 228 234 239 245 247 249 250 250 249 248 251 257 270 281 286
219 227 216 224 210 211 215 234 218 220 206 209 208 206 209 207 213 210 210 211 209 209 243 195 202 226 229 226 214 212 211 218 221 229 235 245 251 252 255 254 252 251 248 247 247 254 264 273 281
215 217 219 209 203 212 218 227 229 212 211 207 204 199 207 214 214 212 207 227 195 209 228 231 240 229 221 229 223 225 215 216 221 231 242 244 247 245 252 254 254 252 248 245 244 246 257 269 278
207 224 201 186 193 214 220 206 197 216 221 205 204 191 191 204 213 215 212 218 209 212 222 227 231 228 223 233 252 227 228 211 226 236 236 244 249 257 250 248 249 248 242 241 242 247 259 271 278
248 180 189 178 189 190 211 232 263 231 223 213 219 205 201 191 202 215 218 220 218 221 224 223 236 246 230 235 245 251 249 232 219 238 247 255 258 252 244 243 246 247 240 238 240 246 257 266 276
164 179 178 173 180 182 212 231 278 218 222 222 202 187 194 194 199 204 209 211 221 230 227 225 231 246 250 247 244 237 234 236 239 247 240 257 258 249 248 249 251 249 241 239 242 247 253 259 274
160 165 183 180 169 118 221 299 276 211 237 238 230 198 196 195 198 198 196 203 212 220 221 227 232 233 240 245 254 261 238 245 246 251 255 255 257 258 256 253 255 250 239 242 242 245 251 256 268
132 161 141 137 178 124 307 271 310 234 220 233 221 196 203 196 200 202 205 211 214 217 220 223 229 233 237 241 246 257 260 258 264 253 256 268 260 259 253 251 244 239 235 235 245 255 250 250 257
137 148 133 127 107 101 329 213 308 236 275 213 198 209 207 213 210 212 223 228 224 224 227 225 232 241 234 245 248 247 252 254 256 259 257 263 272 265 264 240 244 240 244 242 259 259 255 253 266
152 146 79 39 53 23 50 113 295 201 250 202 204 235 212 210 217 232 243 237 240 244 245 236 248 243 241 249 254 256 255 258 260 264 267 269 263 272 280 277 276 292 274 267 266 270 262 262 267
145 111 139 127 130 138 157 265 354 26 213 170 197 207 199 213 214 224 229 231 236 240 239 242 246 231 240 245 248 250 257 261 262 264 268 269 270 271 271 268 278 274 272 266 249 264 283 287 288
136 69 76 84 99 120 222 333 56 52 110 129 178 180 189 200 202 215 228 230 241 246 247 242 239 234 240 248 253 258 263 265 262 262 264 264 265 264 259 266 273 267 258 280 278 274 280 285 287
144 131 134 160 139 98 314 345 23 77 87 119 123 165 179 186 203 209 216 229 242 258 263 258 253 251 254 257 258 259 262 265 264 261 263 262 262 261 262 262 275 277 258 281 280 279 283 278 280
148 95 87 97 85 126 137 182 108 138 123 121 141 156 169 187 202 214 225 234 245 257 257 256 255 256 259 262 264 266 264 262 261 260 258 258 256 254 261 269 278 276 280 278 280 282 284 280 280
184 113 83 55 150 94 110 151 165 171 165 167 166 165 177 191 205 220 237 251 250 243 242 243 250 254 255 257 263 265 264 263 263 261 260 260 255 254 255 261 266 271 273 273 277 280 277 273 280